Regional Weather Roundup
Issued by NWS

Home | Current Version | Previous Version | Text Only | Print | Product List | Glossary On
Versions: 1 2 3 4 5 6 7 8 9 10 11 12 13 14 15 16 17 18 19 20 21 22 23 24 25 26 27 28 29 30 31 32 33 34 35 36 37 38 39 40 41 42 43 44 45 46 47 48 49 50
000
ASPQ40 PGUM 171212
RWRPQ
WEATHER ROUNDUP FOR THE MARIANAS AND MICRONESIA
NATIONAL WEATHER SERVICE TIYAN GU
1000 PM CHST TUE JAN 17 2017

GUZ001>004-171300-
MARIANA ISLANDS-

CITY           SKY/WX    TMP DP  RH WIND       PRES   REMARKS
GUAM AIRPORT   CLOUDY    79  79 100 NE8       29.97S
ANDERSEN AFB   CLOUDY    77  75  94 NE20      29.98S
ROTA AIRPORT   NOT AVBL
TINIAN AP      NOT AVBL
SAIPAN AP      CLOUDY    75  72  88 NE21G35   29.98S

$$

PMZ161-171300-
REPUBLIC OF PALAU-

CITY           SKY/WX    TMP DP  RH WIND       PRES   REMARKS
KOROR AP       NOT AVBL
KOROR WSO      MOCLDY    82  77  83 NE3       29.89S HX  91

$$

PMZ171>174-171300-
FEDERATED STATES OF MICRONESIA-

CITY           SKY/WX    TMP DP  RH WIND       PRES   REMARKS
YAP AIRPORT    MOCLDY    81  77  89 VRB3      29.90R
CHUUK AP       MOCLDY    82  77  83 VRB5      29.92R HX  91
POHNPEI AP     NOT AVBL
POHNPEI WSO    LGT RAIN  81  77  89 NE5       29.94F
KOSRAE AP      NOT AVBL

$$

PMZ181-171300-
REPUBLIC OF THE MARSHALL ISLANDS-

CITY           SKY/WX    TMP DP  RH WIND       PRES   REMARKS
KWAJALEIN AP   MOCLDY    81  70  69 E16       29.92S
MAJURO AP      NOT AVBL
MAJURO WSO     MOCLDY    82  75  78 NE16      29.84F

$$




USA.gov is the U.S. government's official web portal to all federal, state and local government web resources and services.